Regional Weather Roundup
Issued by NWS San Diego, CA

Home | Current Version | Previous Version | Text Only | Print | Product List | Glossary On
Versions: 1 2 3 4 5 6 7 8 9 10 11 12 13 14 15 16 17 18 19 20 21 22 23 24 25 26 27 28 29 30 31 32 33 34 35 36 37 38 39 40 41 42 43 44 45 46 47 48 49 50
000
ASUS46 KSGX 260210
RWRSGX

SAN DIEGO HOURLY WEATHER ROUNDUP
NATIONAL WEATHER SERVICE SAN DIEGO CA
700 PM PDT SAT OCT 25 2014

NOTE: "FAIR" INDICATES FEW OR NO CLOUDS BELOW 12,000 FEET WITH NO
SIGNIFICANT WEATHER AND/OR OBSTRUCTIONS TO VISIBILITY.

CAZ042-043-060-061-PZZ750-775-260300-

GREATER SAN DIEGO AREA

CITY           SKY/WX    TMP DP  RH WIND       PRES   REMARKS
LINDBERGH FLD  CLEAR     70  62  76 W6        30.01S
POINT LOMA       N/A     67  62  83 W8          N/A
NATIONAL CITY    N/A     70  64  82 CALM      30.01R
CHULA VISTA      N/A     69  65  87 W3        29.94R
IMPERIAL BEACH CLEAR     68  63  84 W6        30.01S
BROWN FIELD    CLEAR     66  62  87 W6        30.01R
MIRAMAR MCAS   PTCLDY    67  61  81 W6        30.01R
MONTGOMERY FLD PTCLDY    68  62  81 W5        30.01R

$$

NORTH SAN DIEGO COUNTY

CITY           SKY/WX    TMP DP  RH WIND       PRES   REMARKS
CAMP PENDLETON CLEAR     68  60  75 SW6       29.99R
OCEANSIDE AP   CLEAR     69  62  78 W6        29.99R
OCEANSIDE HBR    N/A     69  64  82 W9        30.02R
VISTA            N/A     68  61  78 CALM      29.98R
CARLSBAD       CLEAR     68  61  78 W6        29.99S
DEL MAR          N/A     68  63  85 CALM      30.02S
LA JOLLA SCRIP   N/A     67  65  92 CALM      29.97S
FALLBROOK        N/A     67  65  91 CALM      29.98R
ESCONDIDO        N/A     69  61  75 W1        30.01R
SAN MARCOS       N/A     67  61  81 CALM      29.98R
POWAY            N/A     68  61  78 CALM      30.01R

$$

EAST SAN DIEGO COUNTY

CITY           SKY/WX    TMP DP  RH WIND       PRES   REMARKS
RAMONA         CLEAR     65  55  70 CALM      30.03
SANTEE LAKES     N/A     68  62  80 W1        30.00S
LA MESA          N/A     69  63  80 CALM      29.94R
JAMUL            N/A     68  61  79 CALM      29.99R
DESCANSO N       N/A     61  50  67 CALM      29.87R
MT. LAGUNA OBS   N/A     56  44  64 NW1       29.75S
CAMPO            N/A     65  56  72 SW9       30.02R

$$

ORANGE COUNTY AND THE LOS ANGELES BASIN

CITY           SKY/WX    TMP DP  RH WIND       PRES   REMARKS
JOHN WAYNE AP  CLEAR     72  59  63 CALM      29.99R
LAKE FOREST FR   N/A     67  57  69 CALM      29.88S
SANTA ANA        N/A     71  60  67 CALM      29.94R
HUNTINGTON BCH   N/A     69  63  83 W9        30.01S
LOS ALAMITOS   FAIR      70  56  62 W8        29.99S
FULLERTON      CLEAR     72  52  49 W3        29.98S
LONG BEACH     CLEAR     70  60  70 NW9       29.99R
L.A. AP        PTCLDY    68  62  81 SW10      29.99S
L.A. DOWNTOWN  CLEAR     70  58  65 CALM      29.98S

$$

THE INLAND EMPIRE

CITY           SKY/WX    TMP DP  RH WIND       PRES   REMARKS
CORONA         PTCLDY    73  54  51 W8        29.98S
CHINO          PTCLDY    71  50  47 W9        29.99S
ONTARIO        PTCLDY    74  48  39 W14       29.99R
SAN BERNARDINO CLEAR     73  48  40 S3        30.01R
RIVERSIDE AP   CLEAR     74  53  48 W6        29.99R
RIV CYN CREST    N/A     74  60  61 SW1       29.96S
MORENO VALLEY    N/A     73  53  49 W5        29.19F
MARCH ARB      PTCLDY    72  45  38 N5        30.01R
HORSETHIEF CYN   N/A     74  48  39 W6        29.99R
PERRIS           N/A     73  49  43 NW6       29.95S
MENIFEE          N/A     75  52  44 SE1       30.04S
HEMET EAST       N/A     72  46  39 CALM      29.96S
FRENCH VALLEY  FAIR      70  52  52 S7        30.02R
TEMECULA         N/A     71  52  52 S3        29.97R

$$

SAN BERNARDINO AND RIVERSIDE COUNTY MOUNTAINS

CITY           SKY/WX    TMP DP  RH WIND       PRES   REMARKS
BIG BEAR AP    CLEAR     50  37  62 W5        30.23S
PINE COVE        N/A     53  41  65 N3        29.90R

$$

SOUTHERN DESERT INCLUDING THE COACHELLA VALLEY

CITY           SKY/WX    TMP DP  RH WIND       PRES   REMARKS
PALM SPRINGS   CLEAR     87  44  22 NW16G22   29.89S
THOUSAND PALMS   N/A     85  46  25 NW12      29.84S
PALM DESERT      N/A     86  49  27 NE3       29.99S
THERMAL        CLEAR     86  48  26 N7        29.83R
BLYTHE         CLEAR     89  49  25 CALM      29.85R
IMPERIAL AP    CLEAR     90  49  24 CALM      29.82F
EL CENTRO NAS  CLEAR     83  49  30 E7        29.83S
YUMA AZ        CLEAR     89  50  26 S3        29.84S
MEXICALI       CLEAR     88  46  23 N3        29.84

$$

UPPER DESERT

CITY           SKY/WX    TMP DP  RH WIND       PRES   REMARKS
VICTORVILLE AP CLEAR     72  39  30 CALM      30.05R
HESPERIA         N/A     68  42  39 SW3       30.05S
APPLE VALLEY     N/A     69  43  38 CALM      30.10S
PALMDALE       CLEAR     70  42  36 SW6       30.04S
LANCASTER      CLEAR     66  37  34 W12       30.03S
EDWARDS AFB    CLEAR     71  42  34 SW10      30.00S
DAGGETT        CLEAR     78  43  28 SW15      29.97R
29 PALMS N     CLEAR     80  43  26 W12       30.03R
NEEDLES        CLEAR     86  45  23 SW6       29.88S

$$

REGIONAL REPORTS

CITY           SKY/WX    TMP DP  RH WIND       PRES   REMARKS
SANTA BARBARA  CLEAR     68  58  70 E3        29.97S
SANDBERG       CLEAR     58  32  37 NW14      30.13S
MT. WILSON       N/A     55  41  58 MISG        N/A
LAS VEGAS NV   PTCLDY    80  41  24 SW10      29.91R
PHOENIX AZ     CLEAR     88  51  28 SW7       29.89R
TIJUANA        CLEAR     66  59  77 W8        30.03S
ENSENADA NW      N/A     69  32  25 W14       29.98S

$$

OFFSHORE ISLANDS

CITY           SKY/WX    TMP DP  RH WIND       PRES   REMARKS
CATALINA ARPT  FOG       61  59  93 W15       30.04S VSB 1
SAN NICOLAS IS CLEAR    N/A N/A N/A W15       30.03S

$$

MARINE AND OFFSHORE BUOY REPORTS

STATION/POSITION SKY/WX   TEMP    WIND        PRES    SWELL
                          AIR SEA DIR/SP/G            HT/PER/DIR
                          (F)     (DEG/KT/KT) (MB)    (FT/S/D)
TANNER BANKS               67 68  310/ 16/ 19 1016.8F   5/310/11
S CLEMENTE BASIN           69 71  300/ 14/ 17 1016.0R   3/290/12
SAN NICOLAS IS.               67                N/A     3/290/11
SO. S. ROSA ISLA           66 69  320/ 19/ 23 1016.2R   7/11
W. S. BARBARA CH           65 64  320/ 17/ 21 1016.0R   8/280/11
S. MONICA BASIN            68 69  270/ 14/ 17 1015.3F   3/260/11
S PEDRO CHANNEL               69                N/A     2/260/12
DANA POINT                    69                N/A     2/190/15
CMP PENDLETON NS              71                N/A     2/210/15
OCEANSIDE OFFSHR              72                N/A     2/200/14
TORREY PINES OTR              71                N/A     2/270/11
LA JOLLA 1                 69 71  330/  4/  5 1015.9R
MISSION BAY BUOY              72                N/A     2/240/13
SAN DIEGO BAY                 74              1016.5R
POINT LOMA SOUTH              71                N/A     3/250/12

$$




USA.gov is the U.S. government's official web portal to all federal, state and local government web resources and services.